owner,sensor,date,latitude,longitude,vertical_datum,sea_water_practical_salinity,qcFlag 
DISL,ioos:station:DISL:MHPA:1,2015-02-01T00:00:00Z,30.6671,-87.9365,1.242,0.09,1111122 
DISL,ioos:station:DISL:MHPA:1,2015-02-01T00:30:00Z,30.6671,-87.9365,1.26,0.09,1111122 
DISL,ioos:station:DISL:MHPA:1,2015-02-01T01:00:00Z,30.6671,-87.9365,1.276,0.09,1111122 
DISL,ioos:station:DISL:MHPA:1,2015-02-01T01:30:00Z,30.6671,-87.9365,1.291,0.1,1111122 
DISL,ioos:station:DISL:MHPA:1,2015-02-01T02:00:00Z,30.6671,-87.9365,1.313,0.09,1111122 
DISL,ioos:station:DISL:MHPA:1,2015-02-01T02:30:00Z,30.6671,-87.9365,1.33,0.09,1111122 
DISL,ioos:station:DISL:MHPA:1,2015-02-01T03:00:00Z,30.6671,-87.9365,1.331,0.09,1111122 
DISL,ioos:station:DISL:MHPA:1,2015-02-01T03:30:00Z,30.6671,-87.9365,1.336,0.09,1111122 
DISL,ioos:station:DISL:MHPA:1,2015-02-01T04:00:00Z,30.6671,-87.9365,1.339,0.09,1111122 
DISL,ioos:station:DISL:MHPA:1,2015-02-01T04:30:00Z,30.6671,-87.9365,1.341,0.09,1111122 
DISL,ioos:station:DISL:MHPA:1,2015-02-01T05:00:00Z,30.6671,-87.9365,1.327,0.09,1111122 
DISL,ioos:station:DISL:MHPA:1,2015-02-01T05:30:00Z,30.6671,-87.9365,1.304,0.09,1111122 
DISL,ioos:station:DISL:MHPA:1,2015-02-01T06:00:00Z,30.6671,-87.9365,1.276,0.1,1111122 
DISL,ioos:station:DISL:MHPA:1,2015-02-01T06:30:00Z,30.6671,-87.9365,1.25,0.1,1111122 
DISL,ioos:station:DISL:MHPA:1,2015-02-01T07:00:00Z,30.6671,-87.9365,1.219,0.1,1111122 
DISL,ioos:station:DISL:MHPA:1,2015-02-01T07:30:00Z,30.6671,-87.9365,1.186,0.09,1111122 
DISL,ioos:station:DISL:MHPA:1,2015-02-01T08:00:00Z,30.6671,-87.9365,1.147,0.09,1111122 
DISL,ioos:station:DISL:MHPA:1,2015-02-01T08:30:00Z,30.6671,-87.9365,1.108,0.09,1111122 
DISL,ioos:station:DISL:MHPA:1,2015-02-01T09:00:00Z,30.6671,-87.9365,1.071,0.09,1111122 
DISL,ioos:station:DISL:MHPA:1,2015-02-01T09:30:00Z,30.6671,-87.9365,1.039,0.1,1111122 
DISL,ioos:station:DISL:MHPA:1,2015-02-01T10:00:00Z,30.6671,-87.9365,1.001,0.1,1111122 
DISL,ioos:station:DISL:MHPA:1,2015-02-01T10:30:00Z,30.6671,-87.9365,0.966,0.1,1111122 
DISL,ioos:station:DISL:MHPA:1,2015-02-01T11:00:00Z,30.6671,-87.9365,0.939,0.1,1111122 
DISL,ioos:station:DISL:MHPA:1,2015-02-01T11:30:00Z,30.6671,-87.9365,0.915,0.1,1111122 
DISL,ioos:station:DISL:MHPA:1,2015-02-01T12:00:00Z,30.6671,-87.9365,0.893,0.1,1111122 
DISL,ioos:station:DISL:MHPA:1,2015-02-01T12:30:00Z,30.6671,-87.9365,0.871,0.1,1111122 
DISL,ioos:station:DISL:MHPA:1,2015-02-01T13:00:00Z,30.6671,-87.9365,0.856,0.09,1111122 
DISL,ioos:station:DISL:MHPA:1,2015-02-01T13:30:00Z,30.6671,-87.9365,0.85,0.09,1111122 
DISL,ioos:station:DISL:MHPA:1,2015-02-01T14:00:00Z,30.6671,-87.9365,0.846,0.09,1111122 
DISL,ioos:station:DISL:MHPA:1,2015-02-01T14:30:00Z,30.6671,-87.9365,0.859,0.09,1111122 
DISL,ioos:station:DISL:MHPA:1,2015-02-01T15:00:00Z,30.6671,-87.9365,0.856,0.09,1111122 
DISL,ioos:station:DISL:MHPA:1,2015-02-01T15:30:00Z,30.6671,-87.9365,0.865,0.09,1111122 
DISL,ioos:station:DISL:MHPA:1,2015-02-01T16:00:00Z,30.6671,-87.9365,0.911,0.09,1111122 
DISL,ioos:station:DISL:MHPA:1,2015-02-01T16:30:00Z,30.6671,-87.9365,0.947,0.09,1111122 
DISL,ioos:station:DISL:MHPA:1,2015-02-01T17:00:00Z,30.6671,-87.9365,0.989,0.09,1111122 
DISL,ioos:station:DISL:MHPA:1,2015-02-01T17:30:00Z,30.6671,-87.9365,1.065,0.1,1111122 
DISL,ioos:station:DISL:MHPA:1,2015-02-01T18:00:00Z,30.6671,-87.9365,1.101,0.1,1111122 
DISL,ioos:station:DISL:MHPA:1,2015-02-01T18:30:00Z,30.6671,-87.9365,1.124,0.1,1111122 
DISL,ioos:station:DISL:MHPA:1,2015-02-01T19:00:00Z,30.6671,-87.9365,1.168,0.1,1111122 
DISL,ioos:station:DISL:MHPA:1,2015-02-01T19:30:00Z,30.6671,-87.9365,1.2,0.1,1111122 
DISL,ioos:station:DISL:MHPA:1,2015-02-01T20:00:00Z,30.6671,-87.9365,1.223,0.1,1111122 
DISL,ioos:station:DISL:MHPA:1,2015-02-01T20:30:00Z,30.6671,-87.9365,1.229,0.1,1111122 
DISL,ioos:station:DISL:MHPA:1,2015-02-01T21:00:00Z,30.6671,-87.9365,1.248,0.1,1111122 
DISL,ioos:station:DISL:MHPA:1,2015-02-01T21:30:00Z,30.6671,-87.9365,1.289,0.1,1111122 
DISL,ioos:station:DISL:MHPA:1,2015-02-01T22:00:00Z,30.6671,-87.9365,1.289,0.1,1111122 
DISL,ioos:station:DISL:MHPA:1,2015-02-01T22:30:00Z,30.6671,-87.9365,1.33,0.1,1111122 
DISL,ioos:station:DISL:MHPA:1,2015-02-01T23:00:00Z,30.6671,-87.9365,1.342,0.1,1111122 
DISL,ioos:station:DISL:MHPA:1,2015-02-01T23:30:00Z,30.6671,-87.9365,1.349,0.1,1111122 
DISL,ioos:station:DISL:MHPA:1,2015-02-02T00:00:00Z,30.6671,-87.9365,1.398,0.1,1111122 
DISL,ioos:station:DISL:MHPA:1,2015-02-02T00:30:00Z,30.6671,-87.9365,1.413,0.1,1111122 
DISL,ioos:station:DISL:MHPA:1,2015-02-02T01:00:00Z,30.6671,-87.9365,1.425,0.1,1111122 
DISL,ioos:station:DISL:MHPA:1,2015-02-02T01:30:00Z,30.6671,-87.9365,1.461,0.1,1111122 
DISL,ioos:station:DISL:MHPA:1,2015-02-02T02:00:00Z,30.6671,-87.9365,1.487,0.1,1111122 
DISL,ioos:station:DISL:MHPA:1,2015-02-02T02:30:00Z,30.6671,-87.9365,1.504,0.1,1111122 
DISL,ioos:station:DISL:MHPA:1,2015-02-02T03:00:00Z,30.6671,-87.9365,1.521,0.1,1111122 
DISL,ioos:station:DISL:MHPA:1,2015-02-02T03:30:00Z,30.6671,-87.9365,1.538,0.1,1111122 
DISL,ioos:station:DISL:MHPA:1,2015-02-02T04:00:00Z,30.6671,-87.9365,1.549,0.1,1111122 
DISL,ioos:station:DISL:MHPA:1,2015-02-02T04:30:00Z,30.6671,-87.9365,1.566,0.1,1111122 
DISL,ioos:station:DISL:MHPA:1,2015-02-02T05:00:00Z,30.6671,-87.9365,1.558,0.1,1111122 
DISL,ioos:station:DISL:MHPA:1,2015-02-02T05:30:00Z,30.6671,-87.9365,1.567,0.1,1111122 
DISL,ioos:station:DISL:MHPA:1,2015-02-02T06:00:00Z,30.6671,-87.9365,1.569,0.1,1111122 
DISL,ioos:station:DISL:MHPA:1,2015-02-02T06:30:00Z,30.6671,-87.9365,1.53,0.1,1111122 
DISL,ioos:station:DISL:MHPA:1,2015-02-02T07:00:00Z,30.6671,-87.9365,1.443,0.1,1111122 
DISL,ioos:station:DISL:MHPA:1,2015-02-02T07:30:00Z,30.6671,-87.9365,1.406,0.1,1111122 
DISL,ioos:station:DISL:MHPA:1,2015-02-02T08:00:00Z,30.6671,-87.9365,1.351,0.1,1111122 
DISL,ioos:station:DISL:MHPA:1,2015-02-02T08:30:00Z,30.6671,-87.9365,1.287,0.1,1111122 
DISL,ioos:station:DISL:MHPA:1,2015-02-02T09:00:00Z,30.6671,-87.9365,1.228,0.1,1111122 
DISL,ioos:station:DISL:MHPA:1,2015-02-02T09:30:00Z,30.6671,-87.9365,1.196,0.1,1111122 
DISL,ioos:station:DISL:MHPA:1,2015-02-02T10:00:00Z,30.6671,-87.9365,1.142,0.12,1111122 
DISL,ioos:station:DISL:MHPA:1,2015-02-02T10:30:00Z,30.6671,-87.9365,1.106,0.13,1111122 
DISL,ioos:station:DISL:MHPA:1,2015-02-02T11:00:00Z,30.6671,-87.9365,1.062,0.18,1111122 
DISL,ioos:station:DISL:MHPA:1,2015-02-02T11:30:00Z,30.6671,-87.9365,1.02,0.23,1111122 
DISL,ioos:station:DISL:MHPA:1,2015-02-02T12:00:00Z,30.6671,-87.9365,0.972,0.22,1111122 
DISL,ioos:station:DISL:MHPA:1,2015-02-02T12:30:00Z,30.6671,-87.9365,0.911,0.17,1111122 
DISL,ioos:station:DISL:MHPA:1,2015-02-02T13:00:00Z,30.6671,-87.9365,0.855,0.16,1111122 
DISL,ioos:station:DISL:MHPA:1,2015-02-02T13:30:00Z,30.6671,-87.9365,0.811,0.18,1111122 
DISL,ioos:station:DISL:MHPA:1,2015-02-02T14:00:00Z,30.6671,-87.9365,0.766,0.16,1111122 
DISL,ioos:station:DISL:MHPA:1,2015-02-02T14:30:00Z,30.6671,-87.9365,0.726,0.17,1111122 
DISL,ioos:station:DISL:MHPA:1,2015-02-02T15:00:00Z,30.6671,-87.9365,0.692,0.18,1111122 
DISL,ioos:station:DISL:MHPA:1,2015-02-02T15:30:00Z,30.6671,-87.9365,0.666,0.19,1111122 
DISL,ioos:station:DISL:MHPA:1,2015-02-02T16:00:00Z,30.6671,-87.9365,0.645,0.2,1111122 
DISL,ioos:station:DISL:MHPA:1,2015-02-02T16:30:00Z,30.6671,-87.9365,0.628,0.21,1111122 
DISL,ioos:station:DISL:MHPA:1,2015-02-02T17:00:00Z,30.6671,-87.9365,0.618,0.2,1111122 
DISL,ioos:station:DISL:MHPA:1,2015-02-02T17:30:00Z,30.6671,-87.9365,0.61,0.2,1111122 
DISL,ioos:station:DISL:MHPA:1,2015-02-02T18:00:00Z,30.6671,-87.9365,0.604,0.2,1111122 
DISL,ioos:station:DISL:MHPA:1,2015-02-02T18:30:00Z,30.6671,-87.9365,0.593,0.2,1111122 
DISL,ioos:station:DISL:MHPA:1,2015-02-02T19:00:00Z,30.6671,-87.9365,0.584,0.21,1111122 
DISL,ioos:station:DISL:MHPA:1,2015-02-02T19:30:00Z,30.6671,-87.9365,0.575,0.2,1111122 
DISL,ioos:station:DISL:MHPA:1,2015-02-02T20:00:00Z,30.6671,-87.9365,0.568,0.2,1111122 
DISL,ioos:station:DISL:MHPA:1,2015-02-02T20:30:00Z,30.6671,-87.9365,0.571,0.2,1111122 
DISL,ioos:station:DISL:MHPA:1,2015-02-02T21:00:00Z,30.6671,-87.9365,0.583,0.2,1111122 
DISL,ioos:station:DISL:MHPA:1,2015-02-02T21:30:00Z,30.6671,-87.9365,0.611,0.2,1111122 
DISL,ioos:station:DISL:MHPA:1,2015-02-02T22:00:00Z,30.6671,-87.9365,0.687,0.21,1111122 
DISL,ioos:station:DISL:MHPA:1,2015-02-02T22:30:00Z,30.6671,-87.9365,0.78,0.21,1111122 
DISL,ioos:station:DISL:MHPA:1,2015-02-02T23:00:00Z,30.6671,-87.9365,0.853,0.21,1111122 
DISL,ioos:station:DISL:MHPA:1,2015-02-02T23:30:00Z,30.6671,-87.9365,0.888,0.21,1111122 
DISL,ioos:station:DISL:MHPA:1,2015-02-03T00:00:00Z,30.6671,-87.9365,0.909,0.21,1111122 
DISL,ioos:station:DISL:MHPA:1,2015-02-03T00:30:00Z,30.6671,-87.9365,0.948,0.2,1111122 
DISL,ioos:station:DISL:MHPA:1,2015-02-03T01:00:00Z,30.6671,-87.9365,0.976,0.2,1111122 
DISL,ioos:station:DISL:MHPA:1,2015-02-03T01:30:00Z,30.6671,-87.9365,1.004,0.2,1111122 
DISL,ioos:station:DISL:MHPA:1,2015-02-03T02:00:00Z,30.6671,-87.9365,1.076,0.21,1111122 
DISL,ioos:station:DISL:MHPA:1,2015-02-03T02:30:00Z,30.6671,-87.9365,1.093,0.2,1111122 
DISL,ioos:station:DISL:MHPA:1,2015-02-03T03:00:00Z,30.6671,-87.9365,1.113,0.21,1111122 
DISL,ioos:station:DISL:MHPA:1,2015-02-03T03:30:00Z,30.6671,-87.9365,1.129,0.21,1111122 
DISL,ioos:station:DISL:MHPA:1,2015-02-03T04:00:00Z,30.6671,-87.9365,1.142,0.21,1111122 
DISL,ioos:station:DISL:MHPA:1,2015-02-03T04:30:00Z,30.6671,-87.9365,1.154,0.21,1111122 
DISL,ioos:station:DISL:MHPA:1,2015-02-03T05:00:00Z,30.6671,-87.9365,1.15,0.2,1111122 
DISL,ioos:station:DISL:MHPA:1,2015-02-03T05:30:00Z,30.6671,-87.9365,1.114,0.2,1111122 
DISL,ioos:station:DISL:MHPA:1,2015-02-03T06:00:00Z,30.6671,-87.9365,1.094,0.19,1111122 
DISL,ioos:station:DISL:MHPA:1,2015-02-03T06:30:00Z,30.6671,-87.9365,1.073,0.19,1111122 
DISL,ioos:station:DISL:MHPA:1,2015-02-03T07:00:00Z,30.6671,-87.9365,1.034,0.19,1111122 
DISL,ioos:station:DISL:MHPA:1,2015-02-03T07:30:00Z,30.6671,-87.9365,0.998,0.17,1111122 
DISL,ioos:station:DISL:MHPA:1,2015-02-03T08:00:00Z,30.6671,-87.9365,0.97,0.17,1111122 
DISL,ioos:station:DISL:MHPA:1,2015-02-03T08:30:00Z,30.6671,-87.9365,0.923,0.17,1111122 
DISL,ioos:station:DISL:MHPA:1,2015-02-03T09:00:00Z,30.6671,-87.9365,0.874,0.17,1111122 
DISL,ioos:station:DISL:MHPA:1,2015-02-03T09:30:00Z,30.6671,-87.9365,0.832,0.17,1111122 
DISL,ioos:station:DISL:MHPA:1,2015-02-03T10:00:00Z,30.6671,-87.9365,0.8,0.17,1111122 
DISL,ioos:station:DISL:MHPA:1,2015-02-03T10:30:00Z,30.6671,-87.9365,0.774,0.17,1111122 
DISL,ioos:station:DISL:MHPA:1,2015-02-03T11:00:00Z,30.6671,-87.9365,0.751,0.16,1111122 
DISL,ioos:station:DISL:MHPA:1,2015-02-03T11:30:00Z,30.6671,-87.9365,0.734,0.16,1111122 
DISL,ioos:station:DISL:MHPA:1,2015-02-03T12:00:00Z,30.6671,-87.9365,0.716,0.16,1111122 
DISL,ioos:station:DISL:MHPA:1,2015-02-03T12:30:00Z,30.6671,-87.9365,0.701,0.16,1111122 
DISL,ioos:station:DISL:MHPA:1,2015-02-03T13:00:00Z,30.6671,-87.9365,0.683,0.16,1111122 
DISL,ioos:station:DISL:MHPA:1,2015-02-03T13:30:00Z,30.6671,-87.9365,0.664,0.16,1111122 
DISL,ioos:station:DISL:MHPA:1,2015-02-03T14:00:00Z,30.6671,-87.9365,0.646,0.16,1111122 
DISL,ioos:station:DISL:MHPA:1,2015-02-03T14:30:00Z,30.6671,-87.9365,0.631,0.16,1111122 
DISL,ioos:station:DISL:MHPA:1,2015-02-03T15:00:00Z,30.6671,-87.9365,0.621,0.16,1111122 
DISL,ioos:station:DISL:MHPA:1,2015-02-03T15:30:00Z,30.6671,-87.9365,0.619,0.17,1111122 
DISL,ioos:station:DISL:MHPA:1,2015-02-03T16:00:00Z,30.6671,-87.9365,0.62,0.17,1111122 
DISL,ioos:station:DISL:MHPA:1,2015-02-03T16:30:00Z,30.6671,-87.9365,0.626,0.17,1111122 
DISL,ioos:station:DISL:MHPA:1,2015-02-03T17:00:00Z,30.6671,-87.9365,0.642,0.16,1111122 
DISL,ioos:station:DISL:MHPA:1,2015-02-03T17:30:00Z,30.6671,-87.9365,0.679,0.16,1111122 
DISL,ioos:station:DISL:MHPA:1,2015-02-03T18:00:00Z,30.6671,-87.9365,0.736,0.16,1111122 
DISL,ioos:station:DISL:MHPA:1,2015-02-03T18:30:00Z,30.6671,-87.9365,0.775,0.16,1111122 
DISL,ioos:station:DISL:MHPA:1,2015-02-03T19:00:00Z,30.6671,-87.9365,0.816,0.16,1111122 
DISL,ioos:station:DISL:MHPA:1,2015-02-03T19:30:00Z,30.6671,-87.9365,0.859,0.17,1111122 
DISL,ioos:station:DISL:MHPA:1,2015-02-03T20:00:00Z,30.6671,-87.9365,0.89,0.17,1111122 
DISL,ioos:station:DISL:MHPA:1,2015-02-03T20:30:00Z,30.6671,-87.9365,0.903,0.17,1111122 
DISL,ioos:station:DISL:MHPA:1,2015-02-03T21:00:00Z,30.6671,-87.9365,0.914,0.17,1111122 
DISL,ioos:station:DISL:MHPA:1,2015-02-03T21:30:00Z,30.6671,-87.9365,0.953,0.17,1111122 
DISL,ioos:station:DISL:MHPA:1,2015-02-03T22:00:00Z,30.6671,-87.9365,0.948,0.17,1111122 
DISL,ioos:station:DISL:MHPA:1,2015-02-03T22:30:00Z,30.6671,-87.9365,0.954,0.17,1111122 
DISL,ioos:station:DISL:MHPA:1,2015-02-03T23:00:00Z,30.6671,-87.9365,0.979,0.17,1111122 
DISL,ioos:station:DISL:MHPA:1,2015-02-03T23:30:00Z,30.6671,-87.9365,0.986,0.17,1111122 
DISL,ioos:station:DISL:MHPA:1,2015-02-04T00:00:00Z,30.6671,-87.9365,0.979,0.17,1111122 
DISL,ioos:station:DISL:MHPA:1,2015-02-04T00:30:00Z,30.6671,-87.9365,0.998,0.17,1111122 
DISL,ioos:station:DISL:MHPA:1,2015-02-04T01:00:00Z,30.6671,-87.9365,1.01,0.17,1111122 
DISL,ioos:station:DISL:MHPA:1,2015-02-04T01:30:00Z,30.6671,-87.9365,1.029,0.16,1111122 
DISL,ioos:station:DISL:MHPA:1,2015-02-04T02:00:00Z,30.6671,-87.9365,1.04,0.16,1111122 
DISL,ioos:station:DISL:MHPA:1,2015-02-04T02:30:00Z,30.6671,-87.9365,1.089,0.16,1111122 
DISL,ioos:station:DISL:MHPA:1,2015-02-04T03:00:00Z,30.6671,-87.9365,1.115,0.16,1111122 
DISL,ioos:station:DISL:MHPA:1,2015-02-04T03:30:00Z,30.6671,-87.9365,1.142,0.16,1111122 
DISL,ioos:station:DISL:MHPA:1,2015-02-04T04:00:00Z,30.6671,-87.9365,1.192,0.16,1111122 
DISL,ioos:station:DISL:MHPA:1,2015-02-04T04:30:00Z,30.6671,-87.9365,1.201,0.16,1111122 
DISL,ioos:station:DISL:MHPA:1,2015-02-04T05:00:00Z,30.6671,-87.9365,1.193,0.16,1111122 
DISL,ioos:station:DISL:MHPA:1,2015-02-04T05:30:00Z,30.6671,-87.9365,1.182,0.17,1111122 
DISL,ioos:station:DISL:MHPA:1,2015-02-04T06:00:00Z,30.6671,-87.9365,1.196,0.17,1111122 
DISL,ioos:station:DISL:MHPA:1,2015-02-04T06:30:00Z,30.6671,-87.9365,1.188,0.16,1111122 
DISL,ioos:station:DISL:MHPA:1,2015-02-04T07:00:00Z,30.6671,-87.9365,1.161,0.16,1111122 
DISL,ioos:station:DISL:MHPA:1,2015-02-04T07:30:00Z,30.6671,-87.9365,1.133,0.16,1111122 
DISL,ioos:station:DISL:MHPA:1,2015-02-04T08:00:00Z,30.6671,-87.9365,1.12,0.16,1111122 
DISL,ioos:station:DISL:MHPA:1,2015-02-04T08:30:00Z,30.6671,-87.9365,1.084,0.16,1111122 
DISL,ioos:station:DISL:MHPA:1,2015-02-04T09:00:00Z,30.6671,-87.9365,1.048,0.16,1111122 
DISL,ioos:station:DISL:MHPA:1,2015-02-04T09:30:00Z,30.6671,-87.9365,1.003,0.16,1111122 
DISL,ioos:station:DISL:MHPA:1,2015-02-04T10:00:00Z,30.6671,-87.9365,0.958,0.16,1111122 
DISL,ioos:station:DISL:MHPA:1,2015-02-04T10:30:00Z,30.6671,-87.9365,0.918,0.16,1111122 
DISL,ioos:station:DISL:MHPA:1,2015-02-04T11:00:00Z,30.6671,-87.9365,0.885,0.16,1111122 
DISL,ioos:station:DISL:MHPA:1,2015-02-04T11:30:00Z,30.6671,-87.9365,0.856,0.16,1111122 
DISL,ioos:station:DISL:MHPA:1,2015-02-04T12:00:00Z,30.6671,-87.9365,0.83,0.16,1111122 
DISL,ioos:station:DISL:MHPA:1,2015-02-04T12:30:00Z,30.6671,-87.9365,0.812,0.16,1111122 
DISL,ioos:station:DISL:MHPA:1,2015-02-04T13:00:00Z,30.6671,-87.9365,0.798,0.16,1111122 
DISL,ioos:station:DISL:MHPA:1,2015-02-04T13:30:00Z,30.6671,-87.9365,0.784,0.16,1111122 
DISL,ioos:station:DISL:MHPA:1,2015-02-04T14:00:00Z,30.6671,-87.9365,0.766,0.16,1111122 
DISL,ioos:station:DISL:MHPA:1,2015-02-04T14:30:00Z,30.6671,-87.9365,0.747,0.16,1111122 
DISL,ioos:station:DISL:MHPA:1,2015-02-04T15:00:00Z,30.6671,-87.9365,0.728,0.16,1111122 
DISL,ioos:station:DISL:MHPA:1,2015-02-04T15:30:00Z,30.6671,-87.9365,0.707,0.16,1111122 
DISL,ioos:station:DISL:MHPA:1,2015-02-04T16:00:00Z,30.6671,-87.9365,0.688,0.16,1111122 
DISL,ioos:station:DISL:MHPA:1,2015-02-04T16:30:00Z,30.6671,-87.9365,0.675,0.16,1111122 
DISL,ioos:station:DISL:MHPA:1,2015-02-04T17:00:00Z,30.6671,-87.9365,0.674,0.16,1111122 
DISL,ioos:station:DISL:MHPA:1,2015-02-04T17:30:00Z,30.6671,-87.9365,0.681,0.16,1111122 
DISL,ioos:station:DISL:MHPA:1,2015-02-04T18:00:00Z,30.6671,-87.9365,0.692,0.16,1111122 
DISL,ioos:station:DISL:MHPA:1,2015-02-04T18:30:00Z,30.6671,-87.9365,0.713,0.16,1111122 
DISL,ioos:station:DISL:MHPA:1,2015-02-04T19:00:00Z,30.6671,-87.9365,0.718,0.15,1111122 
DISL,ioos:station:DISL:MHPA:1,2015-02-04T19:30:00Z,30.6671,-87.9365,0.726,0.15,1111122 
DISL,ioos:station:DISL:MHPA:1,2015-02-04T20:00:00Z,30.6671,-87.9365,0.75,0.15,1111122 
DISL,ioos:station:DISL:MHPA:1,2015-02-04T20:30:00Z,30.6671,-87.9365,0.759,0.15,1111122 
DISL,ioos:station:DISL:MHPA:1,2015-02-04T21:00:00Z,30.6671,-87.9365,0.768,0.15,1111122 
DISL,ioos:station:DISL:MHPA:1,2015-02-04T21:30:00Z,30.6671,-87.9365,0.805,0.15,1111122 
DISL,ioos:station:DISL:MHPA:1,2015-02-04T22:00:00Z,30.6671,-87.9365,0.841,0.15,1111122 
DISL,ioos:station:DISL:MHPA:1,2015-02-04T22:30:00Z,30.6671,-87.9365,0.847,0.15,1111122 
DISL,ioos:station:DISL:MHPA:1,2015-02-04T23:00:00Z,30.6671,-87.9365,0.834,0.15,1111122 
DISL,ioos:station:DISL:MHPA:1,2015-02-04T23:30:00Z,30.6671,-87.9365,0.827,0.16,1111122 
DISL,ioos:station:DISL:MHPA:1,2015-02-05T00:00:00Z,30.6671,-87.9365,0.831,0.16,1111122 
DISL,ioos:station:DISL:MHPA:1,2015-02-05T00:30:00Z,30.6671,-87.9365,0.816,0.16,1111122 
DISL,ioos:station:DISL:MHPA:1,2015-02-05T01:00:00Z,30.6671,-87.9365,0.792,0.16,1111122 
DISL,ioos:station:DISL:MHPA:1,2015-02-05T01:30:00Z,30.6671,-87.9365,0.788,0.16,1111122 
DISL,ioos:station:DISL:MHPA:1,2015-02-05T02:00:00Z,30.6671,-87.9365,0.818,0.16,1111122 
DISL,ioos:station:DISL:MHPA:1,2015-02-05T02:30:00Z,30.6671,-87.9365,0.885,0.17,1111122 
DISL,ioos:station:DISL:MHPA:1,2015-02-05T03:00:00Z,30.6671,-87.9365,0.98,0.16,1111122 
DISL,ioos:station:DISL:MHPA:1,2015-02-05T03:30:00Z,30.6671,-87.9365,1.024,0.16,1111122 
DISL,ioos:station:DISL:MHPA:1,2015-02-05T04:00:00Z,30.6671,-87.9365,1.065,0.17,1111122 
DISL,ioos:station:DISL:MHPA:1,2015-02-05T04:30:00Z,30.6671,-87.9365,1.085,0.16,1111122 
DISL,ioos:station:DISL:MHPA:1,2015-02-05T05:00:00Z,30.6671,-87.9365,1.084,0.16,1111122 
DISL,ioos:station:DISL:MHPA:1,2015-02-05T05:30:00Z,30.6671,-87.9365,1.07,0.16,1111122 
DISL,ioos:station:DISL:MHPA:1,2015-02-05T06:00:00Z,30.6671,-87.9365,1.067,0.16,1111122 
DISL,ioos:station:DISL:MHPA:1,2015-02-05T06:30:00Z,30.6671,-87.9365,1.053,0.16,1111122 
DISL,ioos:station:DISL:MHPA:1,2015-02-05T07:00:00Z,30.6671,-87.9365,1.101,0.16,1111122 
DISL,ioos:station:DISL:MHPA:1,2015-02-05T07:30:00Z,30.6671,-87.9365,1.106,0.16,1111122 
DISL,ioos:station:DISL:MHPA:1,2015-02-05T08:00:00Z,30.6671,-87.9365,1.093,0.15,1111122 
DISL,ioos:station:DISL:MHPA:1,2015-02-05T08:30:00Z,30.6671,-87.9365,1.06,0.14,1111122 
DISL,ioos:station:DISL:MHPA:1,2015-02-05T09:00:00Z,30.6671,-87.9365,0.987,0.14,1111122 
DISL,ioos:station:DISL:MHPA:1,2015-02-05T09:30:00Z,30.6671,-87.9365,0.937,0.14,1111122 
DISL,ioos:station:DISL:MHPA:1,2015-02-05T10:00:00Z,30.6671,-87.9365,0.973,0.14,1111122 
DISL,ioos:station:DISL:MHPA:1,2015-02-05T10:30:00Z,30.6671,-87.9365,0.925,0.14,1111122 
DISL,ioos:station:DISL:MHPA:1,2015-02-05T11:00:00Z,30.6671,-87.9365,0.883,0.13,1111122 
DISL,ioos:station:DISL:MHPA:1,2015-02-05T11:30:00Z,30.6671,-87.9365,0.847,0.13,1111122 
DISL,ioos:station:DISL:MHPA:1,2015-02-05T12:00:00Z,30.6671,-87.9365,0.834,0.12,1111122 
DISL,ioos:station:DISL:MHPA:1,2015-02-05T12:30:00Z,30.6671,-87.9365,0.833,0.13,1111122 
DISL,ioos:station:DISL:MHPA:1,2015-02-05T13:00:00Z,30.6671,-87.9365,0.814,0.13,1111122 
DISL,ioos:station:DISL:MHPA:1,2015-02-05T13:30:00Z,30.6671,-87.9365,0.788,0.13,1111122 
DISL,ioos:station:DISL:MHPA:1,2015-02-05T14:00:00Z,30.6671,-87.9365,0.76,0.13,1111122 
DISL,ioos:station:DISL:MHPA:1,2015-02-05T14:30:00Z,30.6671,-87.9365,0.731,0.14,1111122 
DISL,ioos:station:DISL:MHPA:1,2015-02-05T15:00:00Z,30.6671,-87.9365,0.702,0.14,1111122 
DISL,ioos:station:DISL:MHPA:1,2015-02-05T15:30:00Z,30.6671,-87.9365,0.678,0.14,1111122 
DISL,ioos:station:DISL:MHPA:1,2015-02-05T16:00:00Z,30.6671,-87.9365,0.658,0.14,1111122 
DISL,ioos:station:DISL:MHPA:1,2015-02-05T16:30:00Z,30.6671,-87.9365,0.644,0.13,1111122 
DISL,ioos:station:DISL:MHPA:1,2015-02-05T17:00:00Z,30.6671,-87.9365,0.631,0.13,1111122 
DISL,ioos:station:DISL:MHPA:1,2015-02-05T17:30:00Z,30.6671,-87.9365,0.619,0.13,1111122 
DISL,ioos:station:DISL:MHPA:1,2015-02-05T18:00:00Z,30.6671,-87.9365,0.617,0.13,1111122 
DISL,ioos:station:DISL:MHPA:1,2015-02-05T18:30:00Z,30.6671,-87.9365,0.624,0.13,1111122 
DISL,ioos:station:DISL:MHPA:1,2015-02-05T19:00:00Z,30.6671,-87.9365,0.628,0.13,1111122 
DISL,ioos:station:DISL:MHPA:1,2015-02-05T19:30:00Z,30.6671,-87.9365,0.628,0.13,1111122 
DISL,ioos:station:DISL:MHPA:1,2015-02-05T20:00:00Z,30.6671,-87.9365,0.637,0.13,1111122 
DISL,ioos:station:DISL:MHPA:1,2015-02-05T20:30:00Z,30.6671,-87.9365,0.654,0.13,1111122 
DISL,ioos:station:DISL:MHPA:1,2015-02-05T21:00:00Z,30.6671,-87.9365,0.679,0.13,1111122 
DISL,ioos:station:DISL:MHPA:1,2015-02-05T21:30:00Z,30.6671,-87.9365,0.7,0.13,1111122 
DISL,ioos:station:DISL:MHPA:1,2015-02-05T22:00:00Z,30.6671,-87.9365,0.75,0.13,1111122 
DISL,ioos:station:DISL:MHPA:1,2015-02-05T22:30:00Z,30.6671,-87.9365,0.834,0.13,1111122 
DISL,ioos:station:DISL:MHPA:1,2015-02-05T23:00:00Z,30.6671,-87.9365,0.889,0.13,1111122 
DISL,ioos:station:DISL:MHPA:1,2015-02-05T23:30:00Z,30.6671,-87.9365,0.89,0.13,1111122 
DISL,ioos:station:DISL:MHPA:1,2015-02-06T00:00:00Z,30.6671,-87.9365,0.871,0.13,1111122 
DISL,ioos:station:DISL:MHPA:1,2015-02-06T00:30:00Z,30.6671,-87.9365,0.865,0.14,1111122 
DISL,ioos:station:DISL:MHPA:1,2015-02-06T01:00:00Z,30.6671,-87.9365,0.865,0.14,1111122 
DISL,ioos:station:DISL:MHPA:1,2015-02-06T01:30:00Z,30.6671,-87.9365,0.846,0.14,1111122 
DISL,ioos:station:DISL:MHPA:1,2015-02-06T02:00:00Z,30.6671,-87.9365,0.827,0.14,1111122 
DISL,ioos:station:DISL:MHPA:1,2015-02-06T02:30:00Z,30.6671,-87.9365,0.811,0.14,1111122 
DISL,ioos:station:DISL:MHPA:1,2015-02-06T03:00:00Z,30.6671,-87.9365,0.82,0.14,1111122 
DISL,ioos:station:DISL:MHPA:1,2015-02-06T03:30:00Z,30.6671,-87.9365,0.817,0.14,1111122 
DISL,ioos:station:DISL:MHPA:1,2015-02-06T04:00:00Z,30.6671,-87.9365,0.797,0.14,1111122 
DISL,ioos:station:DISL:MHPA:1,2015-02-06T04:30:00Z,30.6671,-87.9365,0.789,0.14,1111122 
DISL,ioos:station:DISL:MHPA:1,2015-02-06T05:00:00Z,30.6671,-87.9365,0.783,0.13,1111122 
DISL,ioos:station:DISL:MHPA:1,2015-02-06T05:30:00Z,30.6671,-87.9365,0.777,0.13,1111122 
DISL,ioos:station:DISL:MHPA:1,2015-02-06T06:00:00Z,30.6671,-87.9365,0.768,0.13,1111122 
DISL,ioos:station:DISL:MHPA:1,2015-02-06T06:30:00Z,30.6671,-87.9365,0.758,0.13,1111122 
DISL,ioos:station:DISL:MHPA:1,2015-02-06T07:00:00Z,30.6671,-87.9365,0.748,0.13,1111122 
DISL,ioos:station:DISL:MHPA:1,2015-02-06T07:30:00Z,30.6671,-87.9365,0.74,0.13,1111122 
DISL,ioos:station:DISL:MHPA:1,2015-02-06T08:00:00Z,30.6671,-87.9365,0.735,0.13,1111122 
DISL,ioos:station:DISL:MHPA:1,2015-02-06T08:30:00Z,30.6671,-87.9365,0.733,0.13,1111122 
DISL,ioos:station:DISL:MHPA:1,2015-02-06T09:00:00Z,30.6671,-87.9365,0.726,0.12,1111122 
DISL,ioos:station:DISL:MHPA:1,2015-02-06T09:30:00Z,30.6671,-87.9365,0.721,0.13,1111122 
DISL,ioos:station:DISL:MHPA:1,2015-02-06T10:00:00Z,30.6671,-87.9365,0.727,0.13,1111122 
DISL,ioos:station:DISL:MHPA:1,2015-02-06T10:30:00Z,30.6671,-87.9365,0.731,0.13,1111122 
DISL,ioos:station:DISL:MHPA:1,2015-02-06T11:00:00Z,30.6671,-87.9365,0.727,0.13,1111122 
DISL,ioos:station:DISL:MHPA:1,2015-02-06T11:30:00Z,30.6671,-87.9365,0.725,0.13,1111122 
DISL,ioos:station:DISL:MHPA:1,2015-02-06T12:00:00Z,30.6671,-87.9365,0.723,0.13,1111122 
DISL,ioos:station:DISL:MHPA:1,2015-02-06T12:30:00Z,30.6671,-87.9365,0.708,0.13,1111122 
DISL,ioos:station:DISL:MHPA:1,2015-02-06T13:00:00Z,30.6671,-87.9365,0.691,0.13,1111122 
DISL,ioos:station:DISL:MHPA:1,2015-02-06T13:30:00Z,30.6671,-87.9365,0.68,0.13,1111122 
DISL,ioos:station:DISL:MHPA:1,2015-02-06T14:00:00Z,30.6671,-87.9365,0.671,0.13,1111122 
DISL,ioos:station:DISL:MHPA:1,2015-02-06T14:30:00Z,30.6671,-87.9365,0.66,0.13,1111122 
DISL,ioos:station:DISL:MHPA:1,2015-02-06T15:00:00Z,30.6671,-87.9365,0.646,0.13,1111122 
DISL,ioos:station:DISL:MHPA:1,2015-02-06T15:30:00Z,30.6671,-87.9365,0.635,0.13,1111122 